Flag for Canada Weather past 2 weeks in Labrador City, Newfoundland and Labrador, Canada

Now
32 °F

Overcast.


Feels Like: 24 °F
Forecast: 25 / 42 °F
Wind: 9 mph from West

Location: Wabush Lake

Current Time: May 22, 2015 at 6:00:27 AM

Latest Report: May 22, 2015 at 5:00 AM


Visibility: 9 mi

Pressure: 29.83 "Hg

Humidity: 69%

Dew point: 23 °F

Location of Labrador CityLocation

Historic Weather in Labrador City — Graph

°F

Labrador City temperature yesterday

Maximum temperature yesterday: 39 °F (at 4:00 PM)
Minimum temperature yesterday: 30 °F (at 12:00 AM)
Average temperature yesterday: 34 °F

Past Weeks' High & Low Weather Summary

 TemperatureHumidityPressure
High64 °F (May 16, 3:00 PM)100% (May 9, 1:55 AM)30.39 "Hg (May 9, 1:55 AM)
Low12 °F (May 8, 6:00 AM)28% (May 11, 5:00 PM)29.44 "Hg (May 20, 1:00 PM)
Average36 °F75%29.98 "Hg
* Reported May 7 5:00 AM — May 22 5:00 AM, Labrador City, Weather by CustomWeather, © 2015

Note: Actual official high and low records may vary slightly from our data, if they occured in-between our weather recording intervals... More about our weather records

Advertising

Labrador City weather history for previous 24 hours

 ConditionsComfort  
Time TempWeatherWind HumidityBarometerVisibility
5:00 AM
Fri, May 22
32 °FOvercast.9 mph69%29.83 "Hg9 mi
4:00 AM32 °FOvercast.8 mph69%29.82 "Hg9 mi
3:00 AM32 °FOvercast.8 mph75%29.81 "Hg9 mi
2:00 AM32 °FOvercast.5 mph75%29.80 "Hg9 mi
1:00 AM32 °FOvercast.6 mph75%29.80 "Hg9 mi
12:00 AM32 °FOvercast.8 mph75%29.78 "Hg9 mi
11:00 PM
Thu, May 21
32 °FSunny.7 mph75%29.77 "Hg9 mi
10:00 PM34 °FOvercast.13 mph75%29.76 "Hg15 mi
9:00 PM36 °FPartly sunny.14 mph70%29.73 "Hg15 mi
8:00 PM37 °FSprinkles. Partly sunny.14 mph65%29.70 "Hg15 mi
7:00 PM39 °FSprinkles. Partly sunny.9 mph70%29.69 "Hg15 mi
6:00 PM39 °FScattered showers. Mostly cloudy.14 mph75%29.67 "Hg12 mi
5:00 PM39 °FOvercast.13 mph65%29.64 "Hg15 mi
4:00 PM39 °FPartly sunny.14 mph70%29.62 "Hg15 mi
3:00 PM37 °FPartly sunny.15 mph75%29.61 "Hg15 mi
2:00 PM36 °FSnow flurries. Partly sunny.13 mph87%29.61 "Hg15 mi
1:00 PM34 °FSnow flurries. Mostly cloudy.7 mph93%29.59 "Hg1 mi
12:00 PM36 °FSnow flurries. Mostly cloudy.6 mph81%29.57 "Hg15 mi
11:00 AM34 °FSnow flurries. Mostly cloudy.7 mph87%29.57 "Hg12 mi
10:00 AM34 °FScattered showers. Overcast.6 mph81%29.55 "Hg15 mi
9:00 AM34 °FBroken clouds.9 mph81%29.54 "Hg15 mi
8:00 AM30 °FPartly sunny.3 mph86%29.54 "Hg15 mi
7:00 AM30 °FMostly cloudy.6 mph86%29.52 "Hg15 mi
6:00 AM30 °FMostly cloudy.6 mph86%29.50 "Hg15 mi
Weather by CustomWeather, © 2015

See weather overviewHow to use our weather pages